NKS48FD KATL-KFLL

Flight info

Callsign NKS48FD
Flight time 1h 22m
Altitude 37000
Route SMLTZ3 WALET ZPLEN TEEKY4
Aircraft A320/M-SDE3FGHIRWY/LB1

Departure

Time 2026-05-06 19:33
Airport Hartsfield Jackson Atlanta International Airport (KATL)

Arrival

Time 2026-05-06 20:55
Airport Fort Lauderdale Hollywood International Airport (KFLL)
Time Latitude Longitude Altitude Speed Heading
2026-05-06 18:55 33.64208 -84.42992 1007 ft 0 kts 90°
2026-05-06 19:21 33.64208 -84.43005 1006 ft 4 kts 89°
2026-05-06 19:21 33.64208 -84.43037 1006 ft 4 kts 97°
2026-05-06 19:21 33.64215 -84.43062 1006 ft 4 kts 160°
2026-05-06 19:22 33.64220 -84.43064 1006 ft 0 kts 180°
2026-05-06 19:26 33.64211 -84.43064 1006 ft 2 kts 180°
2026-05-06 19:26 33.64187 -84.43064 1006 ft 5 kts 180°
2026-05-06 19:26 33.64148 -84.43064 1006 ft 7 kts 180°
2026-05-06 19:27 33.64096 -84.43064 1006 ft 8 kts 180°
2026-05-06 19:27 33.64032 -84.43064 1006 ft 10 kts 180°
2026-05-06 19:27 33.63955 -84.43064 1006 ft 12 kts 180°
2026-05-06 19:27 33.63868 -84.43064 1006 ft 13 kts 179°
2026-05-06 19:28 33.63776 -84.43063 1006 ft 14 kts 179°
2026-05-06 19:28 33.63689 -84.43050 1006 ft 13 kts 150°
2026-05-06 19:28 33.63664 -84.42947 1006 ft 14 kts 89°
2026-05-06 19:28 33.63665 -84.42824 1006 ft 15 kts 91°
2026-05-06 19:29 33.63658 -84.42692 1007 ft 16 kts 93°
2026-05-06 19:29 33.63657 -84.42551 1007 ft 18 kts 91°
2026-05-06 19:29 33.63657 -84.42399 1007 ft 19 kts 90°
2026-05-06 19:29 33.63657 -84.42236 1007 ft 20 kts 91°
2026-05-06 19:30 33.63655 -84.42065 1007 ft 21 kts 90°
2026-05-06 19:30 33.63655 -84.41884 1006 ft 23 kts 90°
2026-05-06 19:30 33.63655 -84.41692 1006 ft 22 kts 89°
2026-05-06 19:30 33.63656 -84.41507 1006 ft 23 kts 90°
2026-05-06 19:31 33.63655 -84.41309 1006 ft 24 kts 90°
2026-05-06 19:31 33.63654 -84.41117 1006 ft 14 kts 90°
2026-05-06 19:31 33.63527 -84.41040 1006 ft 13 kts 182°
2026-05-06 19:32 33.63470 -84.41116 1005 ft 15 kts 266°
2026-05-06 19:32 33.63468 -84.41356 1006 ft 54 kts 270°
2026-05-06 19:32 33.63468 -84.42052 1007 ft 110 kts 270°
2026-05-06 19:32 33.63468 -84.43155 1005 ft 153 kts 269°
2026-05-06 19:33 33.63450 -84.44517 1368 ft 164 kts 265°
2026-05-06 19:33 33.63447 -84.45898 1966 ft 167 kts 266°
2026-05-06 19:33 33.63457 -84.47296 2606 ft 167 kts 265°
2026-05-06 19:33 33.63453 -84.48725 3018 ft 180 kts 264°
2026-05-06 19:34 33.63446 -84.50303 3316 ft 198 kts 265°
2026-05-06 19:34 33.63447 -84.52065 3592 ft 224 kts 266°
2026-05-06 19:34 33.63454 -84.54017 4063 ft 241 kts 268°
2026-05-06 19:34 33.63470 -84.56068 4813 ft 250 kts 268°
2026-05-06 19:35 33.63490 -84.58170 5654 ft 253 kts 268°
2026-05-06 19:35 33.63493 -84.60278 6557 ft 253 kts 268°
2026-05-06 19:35 33.63477 -84.62386 7419 ft 252 kts 265°
2026-05-06 19:35 33.63104 -84.64433 8240 ft 253 kts 249°
2026-05-06 19:36 33.62179 -84.66236 9056 ft 257 kts 232°
2026-05-06 19:36 33.60792 -84.67632 9866 ft 265 kts 216°
2026-05-06 19:36 33.59166 -84.68686 10619 ft 268 kts 211°
2026-05-06 19:36 33.57360 -84.69375 11279 ft 280 kts 195°
2026-05-06 19:37 33.55362 -84.69371 11896 ft 296 kts 178°
2026-05-06 19:37 33.53321 -84.68957 12560 ft 299 kts 178°
2026-05-06 19:37 33.51256 -84.68545 13236 ft 302 kts 178°
2026-05-06 19:37 33.49170 -84.68142 13880 ft 305 kts 179°
2026-05-06 19:38 33.47060 -84.67744 14440 ft 308 kts 179°
2026-05-06 19:38 33.44935 -84.67346 15013 ft 311 kts 179°
2026-05-06 19:38 33.42807 -84.66650 15543 ft 325 kts 165°
2026-05-06 19:38 33.40784 -84.65291 15900 ft 348 kts 150°
2026-05-06 19:39 33.38935 -84.63263 16036 ft 371 kts 141°
2026-05-06 19:39 33.37063 -84.61040 16159 ft 387 kts 141°
2026-05-06 19:39 33.35129 -84.58735 16506 ft 396 kts 141°
2026-05-06 19:39 33.33173 -84.56399 16979 ft 400 kts 141°
2026-05-06 19:40 33.31191 -84.54038 17442 ft 404 kts 141°
2026-05-06 19:40 33.29183 -84.51657 17937 ft 408 kts 141°
2026-05-06 19:40 33.27156 -84.49262 18426 ft 412 kts 141°
2026-05-06 19:40 33.25106 -84.46849 18852 ft 416 kts 141°
2026-05-06 19:41 33.23033 -84.44416 19281 ft 419 kts 141°
2026-05-06 19:41 33.20944 -84.41964 19715 ft 423 kts 141°
2026-05-06 19:41 33.18833 -84.39488 20150 ft 427 kts 141°
2026-05-06 19:41 33.16706 -84.36994 20577 ft 431 kts 141°
2026-05-06 19:42 33.14559 -84.34474 21031 ft 435 kts 141°
2026-05-06 19:42 33.12422 -84.31965 21445 ft 438 kts 141°
2026-05-06 19:42 33.10241 -84.29406 21838 ft 442 kts 141°
2026-05-06 19:42 33.08038 -84.26824 22213 ft 446 kts 141°
2026-05-06 19:43 33.05813 -84.24224 22601 ft 450 kts 141°
2026-05-06 19:43 33.03571 -84.21609 23047 ft 453 kts 141°
2026-05-06 19:43 33.01217 -84.19117 23424 ft 450 kts 149°
2026-05-06 19:43 32.98618 -84.17097 23809 ft 444 kts 159°
2026-05-06 19:44 32.95821 -84.15579 24150 ft 438 kts 168°
2026-05-06 19:44 32.92939 -84.14392 24493 ft 439 kts 169°
2026-05-06 19:44 32.90041 -84.13206 24825 ft 442 kts 169°
2026-05-06 19:44 32.87124 -84.12010 25160 ft 444 kts 168°
2026-05-06 19:45 32.84193 -84.10806 25499 ft 447 kts 168°
2026-05-06 19:45 32.81242 -84.09595 25829 ft 450 kts 168°
2026-05-06 19:45 32.78283 -84.08376 26162 ft 452 kts 168°
2026-05-06 19:45 32.75301 -84.07149 26482 ft 454 kts 168°
2026-05-06 19:46 32.72307 -84.05922 26793 ft 456 kts 168°
2026-05-06 19:46 32.69298 -84.04693 27123 ft 458 kts 168°
2026-05-06 19:46 32.66276 -84.03457 27438 ft 461 kts 168°
2026-05-06 19:46 32.63241 -84.02212 27761 ft 463 kts 168°
2026-05-06 19:47 32.60186 -84.00958 28079 ft 466 kts 168°
2026-05-06 19:47 32.57114 -83.99701 28396 ft 469 kts 168°
2026-05-06 19:47 32.54018 -83.98437 28705 ft 472 kts 168°
2026-05-06 19:47 32.50908 -83.97168 29027 ft 474 kts 168°
2026-05-06 19:48 32.47779 -83.95893 29335 ft 477 kts 168°
2026-05-06 19:48 32.44630 -83.94613 29597 ft 480 kts 168°
2026-05-06 19:48 32.41457 -83.93325 29893 ft 482 kts 168°
2026-05-06 19:48 32.38287 -83.92036 30295 ft 482 kts 168°
2026-05-06 19:49 32.35113 -83.90751 30638 ft 482 kts 169°
2026-05-06 19:49 32.31926 -83.89531 30946 ft 481 kts 170°
2026-05-06 19:49 32.28770 -83.88392 31282 ft 480 kts 171°
2026-05-06 19:49 32.25564 -83.87280 31640 ft 480 kts 172°
2026-05-06 19:50 32.22359 -83.86183 32013 ft 479 kts 172°
2026-05-06 19:50 32.19156 -83.85075 32335 ft 480 kts 172°
2026-05-06 19:50 32.15947 -83.83947 32622 ft 482 kts 172°
2026-05-06 19:50 32.12731 -83.82803 32959 ft 483 kts 172°
2026-05-06 19:51 32.09513 -83.81644 33311 ft 484 kts 172°
2026-05-06 19:51 32.06293 -83.80477 33673 ft 484 kts 172°
2026-05-06 19:51 32.03074 -83.79313 34028 ft 484 kts 172°
2026-05-06 19:51 31.99859 -83.78158 34342 ft 483 kts 173°
2026-05-06 19:52 31.96643 -83.77008 34647 ft 482 kts 173°
2026-05-06 19:52 31.93440 -83.75866 34974 ft 480 kts 173°
2026-05-06 19:52 31.90245 -83.74731 35285 ft 479 kts 173°
2026-05-06 19:52 31.87061 -83.73601 35596 ft 477 kts 173°
2026-05-06 19:53 31.83883 -83.72478 35907 ft 476 kts 173°
2026-05-06 19:53 31.80719 -83.71361 36221 ft 474 kts 173°
2026-05-06 19:53 31.77568 -83.70249 36531 ft 472 kts 174°
2026-05-06 19:53 31.74423 -83.69135 36839 ft 471 kts 174°
2026-05-06 19:54 31.71294 -83.68024 37024 ft 471 kts 174°
2026-05-06 19:54 31.68145 -83.66904 37062 ft 475 kts 173°
2026-05-06 19:54 31.61816 -83.64526 37064 ft 479 kts 171°
2026-05-06 19:55 31.55496 -83.62044 37070 ft 479 kts 171°
2026-05-06 19:55 31.49174 -83.59583 37072 ft 478 kts 172°
2026-05-06 19:56 31.42850 -83.57162 37074 ft 478 kts 172°
2026-05-06 19:56 31.36517 -83.54752 37076 ft 479 kts 172°
2026-05-06 19:57 31.30185 -83.52343 37054 ft 479 kts 171°
2026-05-06 19:57 31.23843 -83.49931 37064 ft 479 kts 171°
2026-05-06 19:58 31.17503 -83.47515 37067 ft 480 kts 171°
2026-05-06 19:58 31.11200 -83.45113 37069 ft 480 kts 171°
2026-05-06 19:59 31.04850 -83.42703 37047 ft 480 kts 171°
2026-05-06 19:59 30.98502 -83.40296 37067 ft 480 kts 171°
2026-05-06 20:00 30.92153 -83.37901 37085 ft 480 kts 171°
2026-05-06 20:00 30.85806 -83.35502 37093 ft 480 kts 171°
2026-05-06 20:01 30.79454 -83.33104 37074 ft 480 kts 171°
2026-05-06 20:01 30.73111 -83.30712 37069 ft 479 kts 171°
2026-05-06 20:02 30.66892 -83.27705 37078 ft 487 kts 163°
2026-05-06 20:02 30.60742 -83.24388 37086 ft 487 kts 163°
2026-05-06 20:03 30.54590 -83.21077 37089 ft 487 kts 163°
2026-05-06 20:03 30.48443 -83.17767 37093 ft 487 kts 163°
2026-05-06 20:04 30.42292 -83.14463 37099 ft 487 kts 163°
2026-05-06 20:04 30.36134 -83.11163 37096 ft 488 kts 163°
2026-05-06 20:05 30.29969 -83.07867 37095 ft 488 kts 163°
2026-05-06 20:05 30.23794 -83.04571 37096 ft 489 kts 163°
2026-05-06 20:06 30.17619 -83.01277 37079 ft 489 kts 163°
2026-05-06 20:06 30.11441 -82.97990 37086 ft 489 kts 163°
2026-05-06 20:07 30.05262 -82.94703 37086 ft 489 kts 163°
2026-05-06 20:07 29.99083 -82.91418 37093 ft 489 kts 163°
2026-05-06 20:08 29.92904 -82.88134 37098 ft 489 kts 163°
2026-05-06 20:08 29.86770 -82.84879 37084 ft 489 kts 162°
2026-05-06 20:09 29.80591 -82.81605 37094 ft 489 kts 162°
2026-05-06 20:09 29.74412 -82.78347 37096 ft 488 kts 162°
2026-05-06 20:10 29.68231 -82.75088 37094 ft 489 kts 162°
2026-05-06 20:10 29.63047 -82.72354 37090 ft 489 kts 162°
2026-05-06 20:11 29.56900 -82.69114 37073 ft 490 kts 162°
2026-05-06 20:11 29.50706 -82.65864 37083 ft 490 kts 162°
2026-05-06 20:12 29.44504 -82.62610 37086 ft 490 kts 162°
2026-05-06 20:12 29.38309 -82.59359 37088 ft 490 kts 162°
2026-05-06 20:13 29.32111 -82.56110 37064 ft 490 kts 161°
2026-05-06 20:13 29.25819 -82.53391 37074 ft 478 kts 175°
2026-05-06 20:14 29.19347 -82.52710 37079 ft 462 kts 188°
2026-05-06 20:14 29.12906 -82.52736 37088 ft 463 kts 188°
2026-05-06 20:15 29.06460 -82.52727 37094 ft 463 kts 188°
2026-05-06 20:15 29.00008 -82.52708 37088 ft 464 kts 188°
2026-05-06 20:16 28.93552 -82.52700 37095 ft 464 kts 188°
2026-05-06 20:16 28.87096 -82.52702 37100 ft 464 kts 188°
2026-05-06 20:17 28.80636 -82.52701 37084 ft 464 kts 188°
2026-05-06 20:17 28.74174 -82.52702 37063 ft 464 kts 187°
2026-05-06 20:18 28.67715 -82.52702 37068 ft 464 kts 187°
2026-05-06 20:18 28.61253 -82.52699 37075 ft 464 kts 187°
2026-05-06 20:19 28.54792 -82.52698 37076 ft 464 kts 187°
2026-05-06 20:19 28.48326 -82.52694 37079 ft 465 kts 187°
2026-05-06 20:20 28.41859 -82.52684 37066 ft 465 kts 187°
2026-05-06 20:20 28.35392 -82.52678 37073 ft 465 kts 187°
2026-05-06 20:21 28.28922 -82.52677 37087 ft 465 kts 187°
2026-05-06 20:21 28.22455 -82.52673 37088 ft 465 kts 187°
2026-05-06 20:22 28.15985 -82.52665 37069 ft 465 kts 187°
2026-05-06 20:22 28.09515 -82.52659 37078 ft 465 kts 187°
2026-05-06 20:23 28.03088 -82.52657 37078 ft 465 kts 186°
2026-05-06 20:23 27.96572 -82.51473 37087 ft 480 kts 168°
2026-05-06 20:24 27.90197 -82.49188 37073 ft 480 kts 168°
2026-05-06 20:24 27.83818 -82.46926 37062 ft 480 kts 168°
2026-05-06 20:25 27.77446 -82.44682 37075 ft 480 kts 168°
2026-05-06 20:25 27.71114 -82.42442 37081 ft 480 kts 168°
2026-05-06 20:26 27.64746 -82.40185 37086 ft 480 kts 168°
2026-05-06 20:26 27.58376 -82.37929 37088 ft 480 kts 168°
2026-05-06 20:27 27.52003 -82.35680 37083 ft 480 kts 168°
2026-05-06 20:27 27.45627 -82.33445 37085 ft 480 kts 168°
2026-05-06 20:28 27.39251 -82.31192 37089 ft 482 kts 165°
2026-05-06 20:28 27.33181 -82.27784 36845 ft 495 kts 155°
2026-05-06 20:29 27.30185 -82.25873 36595 ft 495 kts 155°
2026-05-06 20:29 27.27190 -82.23965 36348 ft 494 kts 155°
2026-05-06 20:29 27.24209 -82.22068 36086 ft 492 kts 155°
2026-05-06 20:29 27.21238 -82.20181 35659 ft 490 kts 155°
2026-05-06 20:30 27.18273 -82.18301 35130 ft 489 kts 155°
2026-05-06 20:30 27.12357 -82.14562 34077 ft 488 kts 155°
2026-05-06 20:30 27.09398 -82.12689 33493 ft 487 kts 155°
2026-05-06 20:31 27.06454 -82.10827 32974 ft 485 kts 155°
2026-05-06 20:31 27.03519 -82.08974 32420 ft 483 kts 154°
2026-05-06 20:31 27.00597 -82.07127 31888 ft 481 kts 154°
2026-05-06 20:31 26.97707 -82.05242 31359 ft 481 kts 150°
2026-05-06 20:32 26.95060 -82.02940 30818 ft 483 kts 139°
2026-05-06 20:32 26.92716 -82.00238 30316 ft 482 kts 135°
2026-05-06 20:32 26.90428 -81.97515 29718 ft 480 kts 135°
2026-05-06 20:32 26.88146 -81.94813 29289 ft 474 kts 135°
2026-05-06 20:33 26.85890 -81.92153 28792 ft 470 kts 135°
2026-05-06 20:33 26.83641 -81.89509 28258 ft 466 kts 135°
2026-05-06 20:33 26.81411 -81.86890 27764 ft 463 kts 135°
2026-05-06 20:33 26.79199 -81.84288 27264 ft 460 kts 135°
2026-05-06 20:34 26.77009 -81.81712 26661 ft 453 kts 135°
2026-05-06 20:34 26.74845 -81.79179 26294 ft 446 kts 135°
2026-05-06 20:34 26.72724 -81.76708 26137 ft 436 kts 135°
2026-05-06 20:34 26.70641 -81.74286 25736 ft 428 kts 135°
2026-05-06 20:35 26.68587 -81.71904 25053 ft 423 kts 135°
2026-05-06 20:35 26.66551 -81.69547 24376 ft 419 kts 135°
2026-05-06 20:35 26.64538 -81.67215 23729 ft 415 kts 135°
2026-05-06 20:35 26.62618 -81.64830 22987 ft 410 kts 127°
2026-05-06 20:36 26.60921 -81.62288 22534 ft 406 kts 126°
2026-05-06 20:36 26.59244 -81.59780 22173 ft 400 kts 126°
2026-05-06 20:36 26.57584 -81.57315 21503 ft 394 kts 127°
2026-05-06 20:36 26.55949 -81.54898 20990 ft 388 kts 126°
2026-05-06 20:37 26.54322 -81.52492 20542 ft 387 kts 126°
2026-05-06 20:37 26.52718 -81.50115 20136 ft 380 kts 126°
2026-05-06 20:37 26.51145 -81.47781 19662 ft 373 kts 126°
2026-05-06 20:37 26.49582 -81.45459 19230 ft 374 kts 126°
2026-05-06 20:38 26.48032 -81.43153 18834 ft 367 kts 126°
2026-05-06 20:38 26.46512 -81.40898 18385 ft 362 kts 126°
2026-05-06 20:38 26.45007 -81.38669 17931 ft 359 kts 126°
2026-05-06 20:38 26.43504 -81.36449 17515 ft 358 kts 126°
2026-05-06 20:39 26.42028 -81.34268 17106 ft 356 kts 126°
2026-05-06 20:39 26.40507 -81.32049 16718 ft 354 kts 127°
2026-05-06 20:39 26.38967 -81.29924 16313 ft 353 kts 128°
2026-05-06 20:39 26.37424 -81.27869 16016 ft 348 kts 128°
2026-05-06 20:40 26.35870 -81.25829 15489 ft 342 kts 128°
2026-05-06 20:40 26.34339 -81.23824 15097 ft 339 kts 128°
2026-05-06 20:40 26.32823 -81.21827 14703 ft 336 kts 127°
2026-05-06 20:40 26.31325 -81.19840 14312 ft 334 kts 127°
2026-05-06 20:41 26.29836 -81.17857 13934 ft 334 kts 127°
2026-05-06 20:41 26.28345 -81.15871 13562 ft 332 kts 127°
2026-05-06 20:41 26.26863 -81.13906 13163 ft 331 kts 127°
2026-05-06 20:41 26.25385 -81.11957 12846 ft 328 kts 127°
2026-05-06 20:42 26.23908 -81.10017 12490 ft 326 kts 127°
2026-05-06 20:42 26.22457 -81.08114 12020 ft 319 kts 128°
2026-05-06 20:42 26.21028 -81.06241 11627 ft 316 kts 128°
2026-05-06 20:42 26.19608 -81.04381 11256 ft 314 kts 128°
2026-05-06 20:43 26.18198 -81.02531 10896 ft 312 kts 128°
2026-05-06 20:43 26.16798 -81.00690 10546 ft 312 kts 128°
2026-05-06 20:43 26.15462 -80.98819 10295 ft 306 kts 121°
2026-05-06 20:43 26.14562 -80.96687 9969 ft 302 kts 105°
2026-05-06 20:44 26.14130 -80.94425 9559 ft 297 kts 98°
2026-05-06 20:44 26.13762 -80.92181 9066 ft 292 kts 99°
2026-05-06 20:44 26.13396 -80.89972 8701 ft 289 kts 99°
2026-05-06 20:44 26.13030 -80.87774 8341 ft 288 kts 99°
2026-05-06 20:45 26.12664 -80.85594 7992 ft 286 kts 99°
2026-05-06 20:45 26.12298 -80.83419 7647 ft 286 kts 99°
2026-05-06 20:45 26.11934 -80.81240 7316 ft 286 kts 100°
2026-05-06 20:45 26.11572 -80.79072 7006 ft 284 kts 100°
2026-05-06 20:46 26.11213 -80.76933 6820 ft 279 kts 100°
2026-05-06 20:46 26.10857 -80.74816 6675 ft 277 kts 100°
2026-05-06 20:46 26.10508 -80.72743 6532 ft 276 kts 100°
2026-05-06 20:46 26.10156 -80.70645 6384 ft 276 kts 100°
2026-05-06 20:47 26.09804 -80.68549 6232 ft 276 kts 100°
2026-05-06 20:47 26.09453 -80.66457 6089 ft 275 kts 101°
2026-05-06 20:47 26.09103 -80.64374 5945 ft 273 kts 101°
2026-05-06 20:47 26.08753 -80.62296 5803 ft 273 kts 101°
2026-05-06 20:48 26.08401 -80.60220 5666 ft 273 kts 101°
2026-05-06 20:48 26.08050 -80.58147 5511 ft 272 kts 101°
2026-05-06 20:48 26.07700 -80.56082 5379 ft 271 kts 101°
2026-05-06 20:48 26.07353 -80.54028 5239 ft 270 kts 101°
2026-05-06 20:49 26.07005 -80.51962 5104 ft 275 kts 100°
2026-05-06 20:49 26.06724 -80.49857 4947 ft 275 kts 92°
2026-05-06 20:49 26.06701 -80.47709 4560 ft 279 kts 90°
2026-05-06 20:49 26.06706 -80.45564 4303 ft 276 kts 90°
2026-05-06 20:50 26.06718 -80.43457 4139 ft 269 kts 89°
2026-05-06 20:50 26.06722 -80.41414 4037 ft 260 kts 90°
2026-05-06 20:50 26.06720 -80.39433 3869 ft 254 kts 90°
2026-05-06 20:50 26.06719 -80.37474 3580 ft 253 kts 90°
2026-05-06 20:51 26.06722 -80.35537 3200 ft 246 kts 90°
2026-05-06 20:51 26.06720 -80.33680 2885 ft 234 kts 91°
2026-05-06 20:51 26.06709 -80.31917 2564 ft 221 kts 90°
2026-05-06 20:51 26.06710 -80.30281 2276 ft 206 kts 91°
2026-05-06 20:52 26.06700 -80.28781 2082 ft 179 kts 90°
2026-05-06 20:52 26.06688 -80.27488 1980 ft 160 kts 91°
2026-05-06 20:52 26.06665 -80.26321 1837 ft 146 kts 93°
2026-05-06 20:52 26.06644 -80.25204 1674 ft 139 kts 93°
2026-05-06 20:53 26.06635 -80.24128 1450 ft 141 kts 91°
2026-05-06 20:53 26.06640 -80.23047 1270 ft 138 kts 90°
2026-05-06 20:53 26.06624 -80.21969 1128 ft 138 kts 91°
2026-05-06 20:53 26.06603 -80.20904 912 ft 136 kts 91°
2026-05-06 20:54 26.06599 -80.19845 806 ft 137 kts 89°
2026-05-06 20:54 26.06613 -80.18780 615 ft 136 kts 92°
2026-05-06 20:54 26.06595 -80.17719 382 ft 138 kts 94°
2026-05-06 20:54 26.06586 -80.16650 217 ft 139 kts 90°
2026-05-06 20:55 26.06592 -80.15595 42 ft 134 kts 91°
2026-05-06 20:55 26.06583 -80.14681 31 ft 97 kts 91°
2026-05-06 20:55 26.06582 -80.14181 61 ft 34 kts 88°
2026-05-06 20:55 26.06582 -80.13950 73 ft 28 kts 88°
2026-05-06 20:56 26.06648 -80.13766 72 ft 21 kts 42°
2026-05-06 20:56 26.06685 -80.13728 70 ft 5 kts 44°
2026-05-06 20:56 26.06686 -80.13727 70 ft 0 kts 44°
2026-05-06 20:57 26.06690 -80.13724 69 ft 4 kts 33°
2026-05-06 20:57 26.06735 -80.13746 72 ft 10 kts 311°
2026-05-06 20:57 26.06743 -80.13799 67 ft 11 kts 267°
2026-05-06 20:57 26.06744 -80.13926 66 ft 14 kts 273°
2026-05-06 20:58 26.06735 -80.14000 74 ft 15 kts 253°
2026-05-06 20:58 26.06688 -80.14123 64 ft 22 kts 250°
2026-05-06 20:58 26.06676 -80.14301 49 ft 23 kts 271°
2026-05-06 20:58 26.06676 -80.14483 44 ft 24 kts 270°
2026-05-06 20:59 26.06674 -80.14656 33 ft 22 kts 270°
2026-05-06 20:59 26.06679 -80.14817 21 ft 18 kts 276°
2026-05-06 20:59 26.06710 -80.14913 18 ft 12 kts 326°
2026-05-06 20:59 26.06767 -80.14852 15 ft 14 kts 86°
2026-05-06 21:00 26.06802 -80.14803 18 ft 9 kts
2026-05-06 21:00 26.06827 -80.14804 16 ft 3 kts 358°
2026-05-06 21:00 26.06835 -80.14805 16 ft 0 kts 359°
2026-05-06 21:00 26.06836 -80.14805 16 ft 0 kts 359°